Middleton, WI

4:31 AM CST on January 24, 2018 (GMT -0600)
Middleton

Weather History for KC29 - December, 2012

Change the Weather History Date:

Saturday, December 8, 2012

  Actual Average (KMSN) Record (KMSN)
Temperature  
Mean Temperature 34 °F -  
Max Temperature 39 °F 31 °F 60 °F (1946)
Min Temperature 29 °F 16 °F -16 °F (1876)
Degree Days  
Heating Degree Days 31    
Moisture  
Dew Point 27 °F    
Average Humidity 75    
Maximum Humidity 85    
Minimum Humidity 58    
Precipitation  
Precipitation 0.00 in - - ()
Sea Level Pressure  
Sea Level Pressure 30.02 in    
Wind  
Wind Speed 6 mph (NE)    
Max Wind Speed 12 mph    
Max Gust Speed -    
Visibility 10 miles    
Events      
Averages and records for this station are not official NWS values.
T = Trace of Precipitation, MM = Missing Value Source: NWS Daily Summary

Daily Weather History Graph

Daily Weather History Graph

Search for Another Location

Airport or City:

Trip Planner

Search our weather history database for the weather conditions in past years. The results will help you decide how hot, cold, wet, or windy it might be!

Date:

Astronomy

Dec. 08, 2012 Rise Set
Actual Time 7:17 AM CST 4:22 PM CST
Civil Twilight 6:45 AM CST 4:55 PM CST
Nautical Twilight 6:09 AM CST 5:30 PM CST
Astronomical Twilight 5:35 AM CST 6:05 PM CST
Moon 1:35 AM CST (12/8) 12:59 PM CST (12/8)
Length of Visible Light 10h 09m
Length of Day
9h 05m
Waning Crescent, 28% of the Moon is Illuminated
Dec 8
Waning Crescent
Dec 13
New
Dec 19
First Quarter
Dec 28
Full
Jan 4
Last Quarter

Hourly Weather History & Observations

Time (CST) Temp. Windchill Dew Point Humidity Pressure Visibility Wind Dir Wind Speed Gust Speed Precip Events Conditions
12:15 AM 34.2 °F 28.2 °F 26.6 °F 74% 29.93 in 10.0 mi ENE 6.9 mph - N/A   Overcast
12:35 AM 34.2 °F 28.2 °F 26.8 °F 74% 29.97 in 10.0 mi North 6.9 mph - N/A   Overcast
12:55 AM 33.8 °F 28.6 °F 26.8 °F 75% 29.94 in 10.0 mi North 5.8 mph - N/A   Overcast
1:15 AM 33.8 °F 27.7 °F 26.6 °F 75% 29.94 in 10.0 mi NNE 6.9 mph - N/A   Overcast
1:35 AM 33.4 °F 26.6 °F 26.6 °F 76% 29.94 in 10.0 mi NNE 8.1 mph - N/A   Overcast
1:55 AM 33.1 °F 26.9 °F 27.1 °F 79% 29.94 in 10.0 mi NNE 6.9 mph - N/A   Overcast
2:15 AM 32.9 °F 25.9 °F 27.3 °F 80% 29.94 in 10.0 mi NNE 8.1 mph - N/A   Overcast
2:35 AM 33.1 °F 27.7 °F 27.5 °F 80% 29.94 in 10.0 mi NNE 5.8 mph - N/A   Overcast
2:55 AM 33.1 °F 26.9 °F 27.5 °F 80% 29.94 in 10.0 mi North 6.9 mph - N/A   Overcast
3:15 AM 33.3 °F 27.1 °F 27.5 °F 79% 29.94 in 10.0 mi North 6.9 mph - N/A   Overcast
3:35 AM 33.3 °F 28.9 °F 27.5 °F 79% 29.94 in 10.0 mi North 4.6 mph - N/A   Overcast
3:55 AM 33.3 °F 27.9 °F 27.5 °F 79% 29.95 in 10.0 mi North 5.8 mph - N/A   Overcast
4:15 AM 33.1 °F 28.7 °F 27.3 °F 79% 29.95 in 10.0 mi North 4.6 mph - N/A   Overcast
4:35 AM 32.7 °F 26.4 °F 27.3 °F 81% 29.95 in 10.0 mi NNE 6.9 mph - N/A   Overcast
4:55 AM 32.0 °F 28.7 °F 27.1 °F 82% 29.95 in 10.0 mi NNE 3.5 mph - N/A   Overcast
5:15 AM 32.0 °F - 27.0 °F 82% 29.95 in 10.0 mi Calm Calm - N/A   Overcast
5:35 AM 31.6 °F - 26.8 °F 82% 29.96 in 10.0 mi Calm Calm - N/A   Overcast
5:55 AM 30.6 °F 27.1 °F 26.4 °F 85% 29.97 in 10.0 mi NNW 3.5 mph - N/A   Scattered Clouds
6:15 AM 29.7 °F - 25.5 °F 85% 29.98 in 10.0 mi Calm Calm - N/A   Mostly Cloudy
6:35 AM 29.3 °F - 25.3 °F 85% 29.99 in 10.0 mi Calm Calm - N/A   Overcast
6:55 AM 30.2 °F 26.7 °F 25.7 °F 83% 30.00 in 10.0 mi NNW 3.5 mph - N/A   Overcast
7:15 AM 30.7 °F 27.3 °F 25.3 °F 80% 30.00 in 10.0 mi North 3.5 mph - N/A   Overcast
7:35 AM 30.6 °F 24.7 °F 24.8 °F 79% 30.00 in 10.0 mi North 5.8 mph - N/A   Overcast
7:55 AM 30.2 °F 24.3 °F 24.6 °F 80% 30.01 in 10.0 mi North 5.8 mph - N/A   Overcast
8:15 AM 30.4 °F 24.5 °F 24.3 °F 78% 30.02 in 10.0 mi North 5.8 mph - N/A   Overcast
8:35 AM 31.1 °F 24.5 °F 24.8 °F 77% 30.02 in 10.0 mi North 6.9 mph - N/A   Scattered Clouds
8:55 AM 32.2 °F 26.7 °F 25.2 °F 75% 30.03 in 10.0 mi North 5.8 mph - N/A   Mostly Cloudy
9:15 AM 32.5 °F 24.8 °F 25.3 °F 75% 30.03 in 10.0 mi NE 9.2 mph - N/A   Overcast
9:35 AM 32.9 °F 25.3 °F 25.5 °F 74% 30.05 in 10.0 mi NNE 9.2 mph - N/A   Overcast
9:55 AM 32.2 °F 25.0 °F 25.2 °F 75% 30.05 in 10.0 mi NE 8.1 mph - N/A   Mostly Cloudy
10:15 AM 34.2 °F 28.2 °F 25.5 °F 71% 30.05 in 10.0 mi NE 6.9 mph - N/A   Scattered Clouds
10:35 AM 35.2 °F 30.3 °F 25.7 °F 68% 30.05 in 10.0 mi NE 5.8 mph - N/A   Clear
10:55 AM 36.7 °F 30.5 °F 26.1 °F 65% 30.04 in 10.0 mi NNE 8.1 mph - N/A   Clear
11:15 AM 37.4 °F 31.4 °F 26.1 °F 64% 30.04 in 10.0 mi NE 8.1 mph - N/A   Clear
11:35 AM 37.8 °F 33.3 °F 26.1 °F 63% 30.03 in 10.0 mi NE 5.8 mph - N/A   Clear
11:55 AM 38.3 °F 31.9 °F 25.7 °F 61% 30.03 in 10.0 mi NE 9.2 mph - N/A   Clear
12:15 PM 38.5 °F 33.4 °F 25.3 °F 59% 30.02 in 10.0 mi NE 6.9 mph - N/A   Clear
12:35 PM 38.1 °F 33.7 °F 25.9 °F 61% 30.02 in 10.0 mi ENE 5.8 mph - N/A   Scattered Clouds
12:55 PM 37.9 °F 33.5 °F 25.9 °F 62% 30.02 in 10.0 mi ENE 5.8 mph - N/A   Mostly Cloudy
1:15 PM 39.4 °F 33.8 °F 25.7 °F 58% 30.01 in 10.0 mi NE 8.1 mph - N/A   Scattered Clouds
1:35 PM 38.8 °F 33.8 °F 25.5 °F 59% 30.01 in 10.0 mi ENE 6.9 mph - N/A   Scattered Clouds
1:55 PM 37.6 °F 33.1 °F 25.5 °F 62% 30.02 in 10.0 mi East 5.8 mph - N/A   Scattered Clouds
2:15 PM 38.1 °F 33.7 °F 25.7 °F 61% 30.03 in 10.0 mi ENE 5.8 mph - N/A   Clear
2:35 PM 38.3 °F 33.2 °F 26.1 °F 61% 30.03 in 10.0 mi East 6.9 mph - N/A   Scattered Clouds
2:55 PM 37.4 °F 33.8 °F 25.5 °F 62% 30.05 in 10.0 mi ENE 4.6 mph - N/A   Scattered Clouds
3:15 PM 37.6 °F 35.1 °F 26.1 °F 63% 30.05 in 10.0 mi ESE 3.5 mph - N/A   Scattered Clouds
3:35 PM 36.9 °F 30.7 °F 26.6 °F 66% 30.06 in 10.0 mi East 8.1 mph - N/A   Scattered Clouds
3:55 PM 35.8 °F 30.1 °F 26.2 °F 68% 30.06 in 10.0 mi ENE 6.9 mph - N/A   Clear
4:15 PM 34.3 °F 30.2 °F 26.2 °F 72% 30.07 in 10.0 mi ENE 4.6 mph - N/A   Clear
4:35 PM 33.6 °F 26.8 °F 26.8 °F 76% 30.06 in 10.0 mi ENE 8.1 mph - N/A   Clear
4:55 PM 33.6 °F 28.4 °F 27.5 °F 78% 30.07 in 10.0 mi East 5.8 mph - N/A   Clear
5:15 PM 32.9 °F 28.5 °F 27.1 °F 79% 30.08 in 10.0 mi ENE 4.6 mph - N/A   Clear
5:35 PM 32.5 °F 27.1 °F 27.3 °F 81% 30.08 in 10.0 mi ENE 5.8 mph - N/A   Clear
5:55 PM 32.2 °F 27.7 °F 27.1 °F 82% 30.07 in 10.0 mi ENE 4.6 mph - N/A   Clear
6:15 PM 32.0 °F 26.4 °F 27.3 °F 83% 30.07 in 10.0 mi ENE 5.8 mph - N/A   Clear
6:55 PM 31.8 °F 27.3 °F 27.0 °F 82% 30.07 in 10.0 mi East 4.6 mph - N/A   Clear
7:35 PM 32.0 °F 27.5 °F 27.3 °F 83% 30.08 in 10.0 mi East 4.6 mph - N/A   Clear
7:55 PM 32.7 °F 27.3 °F 27.3 °F 81% 30.09 in 10.0 mi East 5.8 mph - N/A   Mostly Cloudy
8:15 PM 34.2 °F 28.2 °F 28.4 °F 79% 30.09 in 10.0 mi East 6.9 mph - N/A   Overcast
8:35 PM 34.3 °F 26.5 °F 28.9 °F 81% 30.09 in 10.0 mi ESE 10.4 mph - N/A   Overcast
8:55 PM 34.7 °F 28.1 °F 28.9 °F 79% 30.09 in 10.0 mi ESE 8.1 mph - N/A   Overcast
9:15 PM 34.3 °F 28.4 °F 28.4 °F 79% 30.08 in 10.0 mi ESE 6.9 mph - N/A   Overcast
9:55 PM 34.7 °F 28.8 °F 28.4 °F 78% 30.09 in 10.0 mi ESE 6.9 mph - N/A   Overcast
10:35 PM 34.9 °F 27.1 °F 28.4 °F 77% 30.09 in 10.0 mi ESE 10.4 mph - N/A   Overcast
10:55 PM 34.7 °F 26.4 °F 28.4 °F 78% 30.09 in 10.0 mi East 11.5 mph - N/A   Overcast
11:15 PM 34.7 °F 27.5 °F 28.4 °F 78% 30.08 in 10.0 mi East 9.2 mph - N/A   Overcast
11:35 PM 34.7 °F 27.5 °F 28.4 °F 78% 30.09 in 10.0 mi East 9.2 mph - N/A   Overcast
11:55 PM 34.7 °F 29.6 °F 28.8 °F 79% 30.08 in 7.0 mi East 5.8 mph - N/A   Overcast